sat.trackr.live / text

‹ back to catalog

ONEWEB-0512

NORAD 54130 · 2022-138T

PAYLOAD ACTIVE UNKNOWN

§ Identity

Operator
Country
UK
Launch date
2022-10-22
Launch site
SRILR
Launch vehicle
Mass (kg)
RCS (m²)

Purposes: comms

External: N2YO · Heavens-Above · Gunter

§ Orbital elements

Epoch: 2026-09-19T09:31:37.309440Z

Period
109.11 min
Inclination
87.9109°
Eccentricity
0.0002109
Mean motion
13.19724137 rev/d
Perigee alt
1,184.2 km
Apogee alt
1,187.4 km
Semi-major
7,563.9 km
B*
2.4721e-4
RAAN
286.2004°
Arg perigee
84.1198°
Mean anomaly
276.0175°
Rev number
18,923

§ Raw data

ONEWEB-05121 54130U 22138T   26262.39695960  .00000112  00000+0  24721-3 0  99962 54130  87.9109 286.2004 0002109  84.1198 276.0175 13.19724137189233

JSON: /api/v1/satellites/54130 · /tle

For live sub-satellite position, see the globe view (requires WebGL).

§ Visibility from observer

Set your observer location to see the next 7 days of passes ≥ 10°. The values pass through the URL so the page stays shareable.

No JS? Fill the form by hand. The geolocation button needs JavaScript.